| time (UTC) | temp F | wind direction | speed MPH | gust MPH | rain 1hr in | rain 24hr in | rain mn in | humidity % | barometer mb |
| 20260906214002 | 82 | 123 | 6.0 | 11.0 | 0.00 | 0.00 | 0.00 | 27 | 1021.9 |
| 20260906213502 | 80 | 105 | 6.0 | 11.0 | 0.00 | 0.00 | 0.00 | 27 | 1021.9 |
| 20260906211502 | 81 | 108 | 2.0 | 10.0 | 0.00 | 0.00 | 0.00 | 28 | 1022.1 |
| 20260906211002 | 81 | 144 | 3.0 | 10.0 | 0.00 | 0.00 | 0.00 | 27 | 1022.2 |
| 20260906210502 | 81 | 110 | 5.0 | 10.0 | 0.00 | 0.00 | 0.00 | 27 | 1022.3 |
| 20260906210005 | 81 | 105 | 5.0 | 9.0 | 0.00 | 0.00 | 0.00 | 27 | 1022.5 |
| 20260906205502 | 80 | 128 | 4.0 | 9.0 | 0.00 | 0.00 | 0.00 | 27 | 1022.5 |
| 20260906205003 | 80 | 116 | 2.0 | 6.0 | 0.00 | 0.00 | 0.00 | 27 | 1022.4 |
| 20260906204502 | 80 | 357 | 2.0 | 4.0 | 0.00 | 0.00 | 0.00 | 27 | 1022.6 |
| 20260906204002 | 80 | 329 | 1.0 | 5.0 | 0.00 | 0.00 | 0.00 | 27 | 1022.6 |
| 20260906203502 | 80 | 248 | 1.0 | 5.0 | 0.00 | 0.00 | 0.00 | 27 | 1022.7 |
| 20260906203002 | 80 | 213 | 1.0 | 2.0 | 0.00 | 0.00 | 0.00 | 27 | 1022.8 |
| 20260906202501 | 80 | 229 | 2.0 | 6.0 | 0.00 | 0.00 | 0.00 | 27 | 1022.8 |
| 20260906202002 | 80 | 227 | 2.0 | 8.0 | 0.00 | 0.00 | 0.00 | 27 | 1022.8 |
| 20260906201501 | 80 | 103 | 4.0 | 9.0 | 0.00 | 0.00 | 0.00 | 28 | 1022.8 |
| 20260906201002 | 79 | 11 | 8.0 | 17.0 | 0.00 | 0.00 | 0.00 | 27 | 1022.6 |
| 20260906200501 | 80 | 89 | 7.0 | 17.0 | 0.00 | 0.00 | 0.00 | 27 | 1022.8 |
| 20260906200005 | 80 | 137 | 6.0 | 11.0 | 0.00 | 0.00 | 0.00 | 27 | 1022.9 |
| 20260906195502 | 80 | 131 | 7.0 | 13.0 | 0.00 | 0.00 | 0.00 | 28 | 1022.8 |
| 20260906195002 | 80 | 156 | 7.0 | 13.0 | 0.00 | 0.00 | 0.00 | 27 | 1022.7 |
| 20260906194502 | 81 | 131 | 6.0 | 12.0 | 0.00 | 0.00 | 0.00 | 27 | 1022.7 |
| 20260906194002 | 81 | 127 | 7.0 | 13.0 | 0.00 | 0.00 | 0.00 | 28 | 1022.8 |
| 20260906193502 | 81 | 142 | 9.0 | 16.0 | 0.00 | 0.00 | 0.00 | 27 | 1022.8 |
| 20260906192501 | 81 | 163 | 8.0 | 14.0 | 0.00 | 0.00 | 0.00 | 27 | 1023.2 |
| 20260906191502 | 81 | 185 | 6.0 | 15.0 | 0.00 | 0.00 | 0.00 | 27 | 1023.4 |
| 20260906190502 | 80 | 154 | 6.0 | 9.0 | 0.00 | 0.00 | 0.00 | 27 | 1023.4 |
| 20260906190005 | 81 | 136 | 4.0 | 9.0 | 0.00 | 0.00 | 0.00 | 26 | 1023.5 |
| 20260906184501 | 81 | 231 | 5.0 | 13.0 | 0.00 | 0.00 | 0.00 | 27 | 1023.8 |
| 20260906183502 | 81 | 137 | 5.0 | 8.0 | 0.00 | 0.00 | 0.00 | 27 | 1024.2 |
| 20260906182502 | 81 | 214 | 3.0 | 10.0 | 0.00 | 0.00 | 0.00 | 27 | 1024.3 |
| 20260906182002 | 80 | 219 | 4.0 | 11.0 | 0.00 | 0.00 | 0.00 | 28 | 1024.4 |
| 20260906181502 | 79 | 126 | 5.0 | 11.0 | 0.00 | 0.00 | 0.00 | 28 | 1024.5 |
| 20260906181002 | 79 | 125 | 3.0 | 9.0 | 0.00 | 0.00 | 0.00 | 28 | 1024.6 |
| 20260906180502 | 79 | 92 | 4.0 | 9.0 | 0.00 | 0.00 | 0.00 | 28 | 1024.9 |
| 20260906180005 | 79 | 189 | 5.0 | 10.0 | 0.00 | 0.00 | 0.00 | 28 | 1024.9 |
| 20260906175502 | 79 | 159 | 5.0 | 12.0 | 0.00 | 0.00 | 0.00 | 28 | 1025.0 |
| 20260906175001 | 79 | 231 | 7.0 | 14.0 | 0.00 | 0.00 | 0.00 | 28 | 1025.1 |
| 20260906174501 | 79 | 233 | 6.0 | 14.0 | 0.00 | 0.00 | 0.00 | 28 | 1025.1 |
| 20260906174002 | 79 | 132 | 5.0 | 9.0 | 0.00 | 0.00 | 0.00 | 28 | 1025.2 |
| 20260906173501 | 79 | 200 | 3.0 | 9.0 | 0.00 | 0.00 | 0.00 | 28 | 1025.2 |
| 20260906173002 | 79 | 273 | 2.0 | 9.0 | 0.00 | 0.00 | 0.00 | 28 | 1025.2 |
| 20260906172501 | 79 | 160 | 3.0 | 7.0 | 0.00 | 0.00 | 0.00 | 28 | 1025.2 |
| 20260906172002 | 78 | 304 | 4.0 | 9.0 | 0.00 | 0.00 | 0.00 | 29 | 1025.3 |
| 20260906171502 | 78 | 316 | 7.0 | 13.0 | 0.00 | 0.00 | 0.00 | 29 | 1025.3 |
| 20260906171002 | 78 | 277 | 5.0 | 13.0 | 0.00 | 0.00 | 0.00 | 29 | 1025.3 |
| 20260906170502 | 78 | 122 | 3.0 | 9.0 | 0.00 | 0.00 | 0.00 | 30 | 1025.4 |
| 20260906170004 | 77 | 91 | 3.0 | 6.0 | 0.00 | 0.00 | 0.00 | 30 | 1025.4 |
| 20260906165502 | 77 | 345 | 3.0 | 5.0 | 0.00 | 0.00 | 0.00 | 31 | 1025.5 |
| 20260906164501 | 76 | 110 | 4.0 | 7.0 | 0.00 | 0.00 | 0.00 | 32 | 1025.6 |
| 20260906164001 | 76 | 101 | 4.0 | 7.0 | 0.00 | 0.00 | 0.00 | 32 | 1025.7 |
| 20260906163502 | 76 | 95 | 3.0 | 9.0 | 0.00 | 0.00 | 0.00 | 33 | 1025.7 |
| 20260906163002 | 76 | 106 | 3.0 | 10.0 | 0.00 | 0.00 | 0.00 | 33 | 1025.7 |
| 20260906162002 | 75 | 136 | 3.0 | 7.0 | 0.00 | 0.00 | 0.00 | 34 | 1025.8 |
| 20260906161501 | 75 | 98 | 2.0 | 7.0 | 0.00 | 0.00 | 0.00 | 33 | 1025.8 |
| 20260906161001 | 75 | 157 | 2.0 | 5.0 | 0.00 | 0.00 | 0.00 | 32 | 1025.8 |
| 20260906160501 | 75 | 136 | 3.0 | 5.0 | 0.00 | 0.00 | 0.00 | 33 | 1025.9 |
| 20260906160004 | 75 | 117 | 2.0 | 5.0 | 0.00 | 0.00 | 0.00 | 33 | 1025.8 |
| 20260906155502 | 75 | 229 | 1.0 | 5.0 | 0.00 | 0.00 | 0.00 | 34 | 1025.9 |
| 20260906155002 | 74 | 146 | 1.0 | 5.0 | 0.00 | 0.00 | 0.00 | 34 | 1025.9 |
| 20260906154501 | 74 | 183 | 1.0 | 3.0 | 0.00 | 0.00 | 0.00 | 35 | 1025.8 |
| 20260906153502 | 72 | 165 | 1.0 | 4.0 | 0.00 | 0.00 | 0.00 | 39 | 1025.9 |
| 20260906153001 | 70 | 129 | 2.0 | 5.0 | 0.00 | 0.00 | 0.00 | 39 | 1025.9 |
| 20260906152502 | 70 | 136 | 2.0 | 5.0 | 0.00 | 0.00 | 0.00 | 40 | 1025.8 |
| 20260906152002 | 70 | 89 | 1.0 | 4.0 | 0.00 | 0.00 | 0.00 | 41 | 1025.9 |
| 20260906151001 | 69 | 148 | 2.0 | 4.0 | 0.00 | 0.00 | 0.00 | 41 | 1025.9 |
| 20260906150501 | 68 | 116 | 3.0 | 4.0 | 0.00 | 0.00 | 0.00 | 42 | 1025.9 |
| 20260906150004 | 68 | 95 | 2.0 | 4.0 | 0.00 | 0.00 | 0.00 | 43 | 1026.0 |
| 20260906145502 | 67 | 107 | 2.0 | 4.0 | 0.00 | 0.00 | 0.00 | 45 | 1026.1 |
| 20260906145001 | 67 | 104 | 1.0 | 4.0 | 0.00 | 0.00 | 0.00 | 44 | 1026.1 |
| 20260906144501 | 67 | 155 | 0.0 | 1.0 | 0.00 | 0.00 | 0.00 | 43 | 1026.0 |
| 20260906144002 | 66 | 284 | 0.0 | 1.0 | 0.00 | 0.00 | 0.00 | 45 | 1025.9 |
| 20260906143501 | 66 | 283 | 0.0 | 1.0 | 0.00 | 0.00 | 0.00 | 46 | 1025.9 |
| 20260906143001 | 65 | 283 | 0.0 | 0.0 | 0.00 | 0.00 | 0.00 | 47 | 1025.9 |
| 20260906142002 | 62 | 284 | 1.0 | 2.0 | 0.00 | 0.00 | 0.00 | 51 | 1025.9 |
| 20260906141002 | 60 | 322 | 0.0 | 0.0 | 0.00 | 0.00 | 0.00 | 54 | 1025.8 |
| 20260906140502 | 60 | 305 | 0.0 | 0.0 | 0.00 | 0.00 | 0.00 | 55 | 1025.9 |
| 20260906140004 | 60 | 203 | 0.0 | 1.0 | 0.00 | 0.00 | 0.00 | 56 | 1025.9 |
| 20260906135502 | 59 | 203 | 1.0 | 2.0 | 0.00 | 0.00 | 0.00 | 57 | 1025.7 |
| 20260906135001 | 59 | 203 | 1.0 | 3.0 | 0.00 | 0.00 | 0.00 | 58 | 1025.6 |
| 20260906134502 | 59 | 173 | 1.0 | 4.0 | 0.00 | 0.00 | 0.00 | 57 | 1025.8 |
| 20260906134001 | 59 | 286 | 2.0 | 4.0 | 0.00 | 0.00 | 0.00 | 58 | 1025.8 |
| 20260906133502 | 58 | 298 | 1.0 | 3.0 | 0.00 | 0.00 | 0.00 | 57 | 1025.8 |
| 20260906132502 | 56 | 291 | 0.0 | 0.0 | 0.00 | 0.00 | 0.00 | 59 | 1025.5 |
| 20260906132002 | 56 | 291 | 0.0 | 0.0 | 0.00 | 0.00 | 0.00 | 61 | 1025.7 |
| 20260906131001 | 54 | 275 | 0.0 | 0.0 | 0.00 | 0.00 | 0.00 | 63 | 1025.5 |
| 20260906130501 | 55 | 275 | 0.0 | 0.0 | 0.00 | 0.00 | 0.00 | 62 | 1025.4 |
| 20260906130004 | 55 | 275 | 0.0 | 0.0 | 0.00 | 0.00 | 0.00 | 63 | 1025.5 |
| 20260906125000 | 53 | 275 | 1.0 | 2.0 | 0.00 | 0.00 | 0.00 | 67 | 1025.5 |
| 20260906124000 | 52 | 312 | 2.0 | 4.0 | 0.00 | 0.00 | 0.00 | 67 | 1025.4 |
| 20260906123501 | 52 | 326 | 3.0 | 4.0 | 0.00 | 0.00 | 0.00 | 66 | 1025.4 |
| 20260906123001 | 52 | 326 | 3.0 | 4.0 | 0.00 | 0.00 | 0.00 | 66 | 1025.5 |
| 20260906122001 | 50 | 13 | 1.0 | 3.0 | 0.00 | 0.00 | 0.00 | 69 | 1025.2 |
| 20260906121000 | 52 | 290 | 0.0 | 0.0 | 0.00 | 0.00 | 0.00 | 67 | 1025.3 |
| 20260906120501 | 52 | 291 | 0.0 | 0.0 | 0.00 | 0.00 | 0.00 | 68 | 1025.4 |
| 20260906120004 | 51 | 290 | 0.0 | 0.0 | 0.00 | 0.00 | 0.00 | 69 | 1025.3 |
| 20260906115500 | 51 | 290 | 0.0 | 0.0 | 0.00 | 0.00 | 0.00 | 69 | 1025.4 |
| 20260906115000 | 51 | 291 | 0.0 | 0.0 | 0.00 | 0.00 | 0.00 | 69 | 1025.3 |
| 20260906114001 | 51 | 290 | 0.0 | 2.0 | 0.00 | 0.00 | 0.00 | 69 | 1025.4 |
| 20260906113500 | 52 | 290 | 1.0 | 3.0 | 0.00 | 0.00 | 0.00 | 67 | 1025.5 |
| 20260906113000 | 54 | 290 | 2.0 | 5.0 | 0.00 | 0.00 | 0.00 | 63 | 1025.4 |
| 20260906112000 | 52 | 105 | 2.0 | 4.0 | 0.00 | 0.00 | 0.00 | 69 | 1025.4 |
| 20260906111501 | 52 | 103 | 1.0 | 4.0 | 0.00 | 0.00 | 0.00 | 68 | 1025.4 |
| 20260906111001 | 51 | 118 | 0.0 | 2.0 | 0.00 | 0.00 | 0.00 | 69 | 1025.4 |
| 20260906110003 | 52 | 110 | 1.0 | 4.0 | 0.00 | 0.00 | 0.00 | 68 | 1025.5 |
| 20260906105501 | 52 | 110 | 2.0 | 5.0 | 0.00 | 0.00 | 0.00 | 68 | 1025.6 |
| 20260906105000 | 53 | 107 | 3.0 | 5.0 | 0.00 | 0.00 | 0.00 | 66 | 1025.6 |
| 20260906104000 | 53 | 316 | 1.0 | 4.0 | 0.00 | 0.00 | 0.00 | 66 | 1025.4 |
| 20260906103501 | 53 | 316 | 1.0 | 2.0 | 0.00 | 0.00 | 0.00 | 65 | 1025.5 |
| 20260906103000 | 54 | 316 | 1.0 | 3.0 | 0.00 | 0.00 | 0.00 | 65 | 1025.4 |
| 20260906102500 | 53 | 316 | 1.0 | 3.0 | 0.00 | 0.00 | 0.00 | 68 | 1025.4 |
| 20260906102000 | 52 | 114 | 0.0 | 2.0 | 0.00 | 0.00 | 0.00 | 68 | 1025.4 |
| 20260906101501 | 52 | 114 | 1.0 | 3.0 | 0.00 | 0.00 | 0.00 | 70 | 1025.5 |
| 20260906101001 | 51 | 114 | 2.0 | 4.0 | 0.00 | 0.00 | 0.00 | 71 | 1025.4 |
| 20260906100501 | 50 | 114 | 3.0 | 4.0 | 0.00 | 0.00 | 0.00 | 72 | 1025.4 |
| 20260906100004 | 50 | 110 | 4.0 | 5.0 | 0.00 | 0.00 | 0.00 | 72 | 1025.5 |
| 20260906095501 | 50 | 108 | 4.0 | 5.0 | 0.00 | 0.00 | 0.00 | 72 | 1025.5 |
| 20260906095001 | 50 | 108 | 3.0 | 5.0 | 0.00 | 0.00 | 0.00 | 71 | 1025.4 |
| 20260906094501 | 51 | 110 | 2.0 | 4.0 | 0.00 | 0.00 | 0.00 | 69 | 1025.2 |
| 20260906094000 | 51 | 145 | 1.0 | 2.0 | 0.00 | 0.00 | 0.00 | 68 | 1025.2 |
| 20260906093500 | 51 | 145 | 1.0 | 2.0 | 0.00 | 0.00 | 0.00 | 68 | 1025.3 |
| 20260906093001 | 52 | 145 | 2.0 | 3.0 | 0.00 | 0.00 | 0.00 | 68 | 1025.2 |
| 20260906092500 | 52 | 145 | 2.0 | 3.0 | 0.00 | 0.00 | 0.00 | 68 | 1025.2 |
| 20260906092001 | 52 | 216 | 2.0 | 3.0 | 0.00 | 0.00 | 0.00 | 68 | 1025.3 |
| 20260906091501 | 51 | 216 | 2.0 | 3.0 | 0.00 | 0.00 | 0.00 | 71 | 1025.2 |
| 20260906091000 | 50 | 167 | 2.0 | 2.0 | 0.00 | 0.00 | 0.00 | 73 | 1025.2 |
| 20260906090003 | 51 | 141 | 2.0 | 3.0 | 0.00 | 0.00 | 0.00 | 66 | 1025.2 |
| 20260906085001 | 55 | 212 | 3.0 | 5.0 | 0.00 | 0.00 | 0.00 | 61 | 1025.2 |
| 20260906084501 | 55 | 275 | 4.0 | 5.0 | 0.00 | 0.00 | 0.00 | 63 | 1025.1 |
| 20260906083501 | 53 | 296 | 4.0 | 5.0 | 0.00 | 0.00 | 0.00 | 68 | 1025.2 |
| 20260906083001 | 52 | 290 | 3.0 | 5.0 | 0.00 | 0.00 | 0.00 | 70 | 1025.3 |
| 20260906082501 | 51 | 278 | 2.0 | 3.0 | 0.00 | 0.00 | 0.00 | 72 | 1025.3 |
| 20260906082000 | 50 | 291 | 1.0 | 2.0 | 0.00 | 0.00 | 0.00 | 73 | 1025.4 |
| 20260906081501 | 50 | 291 | 2.0 | 3.0 | 0.00 | 0.00 | 0.00 | 74 | 1025.4 |
| 20260906081001 | 50 | 291 | 3.0 | 3.0 | 0.00 | 0.00 | 0.00 | 74 | 1025.4 |
| 20260906080500 | 50 | 291 | 2.0 | 3.0 | 0.00 | 0.00 | 0.00 | 74 | 1025.4 |
| 20260906080004 | 50 | 291 | 1.0 | 3.0 | 0.00 | 0.00 | 0.00 | 75 | 1025.5 |
| 20260906075500 | 50 | 291 | 2.0 | 2.0 | 0.00 | 0.00 | 0.00 | 75 | 1025.5 |
| 20260906075000 | 50 | 291 | 2.0 | 3.0 | 0.00 | 0.00 | 0.00 | 76 | 1025.5 |
| 20260906074500 | 49 | 291 | 3.0 | 4.0 | 0.00 | 0.00 | 0.00 | 76 | 1025.4 |
| 20260906074001 | 49 | 297 | 3.0 | 4.0 | 0.00 | 0.00 | 0.00 | 75 | 1025.4 |
| 20260906073501 | 49 | 297 | 3.0 | 4.0 | 0.00 | 0.00 | 0.00 | 74 | 1025.5 |
| 20260906072500 | 50 | 322 | 4.0 | 5.0 | 0.00 | 0.00 | 0.00 | 72 | 1025.6 |
| 20260906072001 | 50 | 321 | 4.0 | 7.0 | 0.00 | 0.00 | 0.00 | 72 | 1025.8 |
| 20260906071500 | 50 | 328 | 4.0 | 7.0 | 0.00 | 0.00 | 0.00 | 72 | 1025.8 |
| 20260906071001 | 51 | 301 | 3.0 | 5.0 | 0.00 | 0.00 | 0.00 | 71 | 1025.7 |
| 20260906070501 | 51 | 298 | 4.0 | 5.0 | 0.00 | 0.00 | 0.00 | 70 | 1025.8 |
| 20260906070005 | 52 | 290 | 4.0 | 5.0 | 0.00 | 0.00 | 0.00 | 68 | 1025.6 |
| 20260906065501 | 52 | 293 | 3.0 | 5.0 | 0.00 | 0.00 | 0.00 | 69 | 1025.4 |
| 20260906064502 | 53 | 301 | 2.0 | 4.0 | 0.00 | 0.00 | 0.00 | 66 | 1025.4 |
| 20260906064001 | 53 | 132 | 4.0 | 6.0 | 0.00 | 0.00 | 0.00 | 69 | 1025.4 |
| 20260906063501 | 52 | 120 | 5.0 | 6.0 | 0.00 | 0.00 | 0.00 | 70 | 1025.4 |
| 20260906063002 | 52 | 110 | 5.0 | 7.0 | 0.00 | 0.00 | 0.00 | 70 | 1025.3 |
| 20260906062502 | 52 | 121 | 5.0 | 7.0 | 0.00 | 0.00 | 0.00 | 71 | 1025.3 |
| 20260906062002 | 52 | 114 | 5.0 | 7.0 | 0.00 | 0.00 | 0.00 | 70 | 1025.3 |
| 20260906061502 | 52 | 112 | 6.0 | 10.0 | 0.00 | 0.00 | 0.00 | 71 | 1025.4 |
| 20260906060502 | 52 | 104 | 5.0 | 12.0 | 0.00 | 0.00 | 0.00 | 70 | 1025.4 |
| 20260906060005 | 53 | 111 | 3.0 | 11.0 | 0.00 | 0.00 | 0.00 | 69 | 1025.4 |
| 20260906055502 | 54 | 124 | 1.0 | 2.0 | 0.00 | 0.00 | 0.00 | 64 | 1025.2 |
| 20260906054502 | 57 | 129 | 1.0 | 3.0 | 0.00 | 0.00 | 0.00 | 59 | 1025.1 |
| 20260906054002 | 57 | 281 | 1.0 | 3.0 | 0.00 | 0.00 | 0.00 | 59 | 1025.1 |
| 20260906053502 | 57 | 281 | 2.0 | 3.0 | 0.00 | 0.00 | 0.00 | 58 | 1025.2 |
| 20260906053001 | 57 | 271 | 1.0 | 3.0 | 0.00 | 0.00 | 0.00 | 59 | 1025.2 |
| 20260906052502 | 57 | 196 | 0.0 | 1.0 | 0.00 | 0.00 | 0.00 | 60 | 1025.3 |
| 20260906052001 | 57 | 196 | 1.0 | 1.0 | 0.00 | 0.00 | 0.00 | 61 | 1025.3 |
| 20260906051502 | 57 | 196 | 1.0 | 4.0 | 0.00 | 0.00 | 0.00 | 59 | 1025.3 |
| 20260906051002 | 57 | 174 | 2.0 | 4.0 | 0.00 | 0.00 | 0.00 | 59 | 1025.3 |
| 20260906050502 | 57 | 168 | 2.0 | 3.0 | 0.00 | 0.00 | 0.00 | 60 | 1025.3 |
| 20260906050004 | 56 | 176 | 2.0 | 3.0 | 0.00 | 0.00 | 0.00 | 60 | 1025.4 |
| 20260906045502 | 55 | 94 | 0.0 | 2.0 | 0.00 | 0.00 | 0.00 | 61 | 1025.4 |
| 20260906045001 | 55 | 94 | 0.0 | 1.0 | 0.00 | 0.00 | 0.00 | 60 | 1025.4 |
| 20260906044502 | 55 | 94 | 0.0 | 1.0 | 0.00 | 0.00 | 0.00 | 60 | 1025.3 |
| 20260906044001 | 56 | 94 | 1.0 | 4.0 | 0.00 | 0.00 | 0.00 | 59 | 1025.3 |
| 20260906043502 | 57 | 94 | 2.0 | 5.0 | 0.00 | 0.00 | 0.00 | 57 | 1025.4 |
| 20260906043002 | 59 | 238 | 3.0 | 4.0 | 0.00 | 0.00 | 0.00 | 55 | 1025.5 |
| 20260906042503 | 59 | 247 | 4.0 | 5.0 | 0.00 | 0.00 | 0.00 | 56 | 1025.3 |
| 20260906041002 | 59 | 247 | 4.0 | 6.0 | 0.00 | 0.00 | 0.00 | 55 | 1025.2 |
| 20260906040501 | 60 | 247 | 4.0 | 6.0 | 0.00 | 0.00 | 0.00 | 54 | 1025.4 |
| 20260906035502 | 61 | 259 | 1.0 | 3.0 | 0.00 | 0.00 | 0.00 | 53 | 1025.4 |
| 20260906035001 | 61 | 133 | 2.0 | 3.0 | 0.00 | 0.00 | 0.00 | 53 | 1025.4 |
| 20260906034502 | 61 | 133 | 1.0 | 2.0 | 0.00 | 0.00 | 0.00 | 52 | 1025.4 |
| 20260906034001 | 62 | 133 | 0.0 | 2.0 | 0.00 | 0.00 | 0.00 | 53 | 1025.2 |
| 20260906033501 | 62 | 158 | 1.0 | 2.0 | 0.00 | 0.00 | 0.00 | 53 | 1025.3 |
| 20260906033001 | 62 | 157 | 1.0 | 3.0 | 0.00 | 0.00 | 0.00 | 53 | 1025.4 |
| 20260906032502 | 63 | 158 | 1.0 | 2.0 | 0.00 | 0.00 | 0.00 | 51 | 1025.4 |
| 20260906032001 | 63 | 297 | 1.0 | 1.0 | 0.00 | 0.00 | 0.00 | 52 | 1025.4 |
| 20260906031501 | 63 | 297 | 1.0 | 1.0 | 0.00 | 0.00 | 0.00 | 52 | 1025.3 |
| 20260906031001 | 63 | 297 | 1.0 | 1.0 | 0.00 | 0.00 | 0.00 | 52 | 1025.3 |
| 20260906030502 | 63 | 297 | 0.0 | 1.0 | 0.00 | 0.00 | 0.00 | 52 | 1025.3 |
| 20260906030004 | 62 | 297 | 0.0 | 1.0 | 0.00 | 0.00 | 0.00 | 53 | 1025.2 |
| 20260906025002 | 62 | 297 | 2.0 | 3.0 | 0.00 | 0.00 | 0.00 | 51 | 1025.1 |
| 20260906024501 | 63 | 275 | 0.0 | 2.0 | 0.00 | 0.00 | 0.00 | 50 | 1025.0 |
| 20260906024002 | 64 | 219 | 0.0 | 1.0 | 0.00 | 0.00 | 0.00 | 50 | 1025.0 |
| 20260906023502 | 65 | 219 | 0.0 | 1.0 | 0.00 | 0.00 | 0.00 | 49 | 1025.0 |
| 20260906022501 | 66 | 219 | 1.0 | 4.0 | 0.00 | 0.00 | 0.00 | 48 | 1024.8 |
| 20260906022001 | 66 | 190 | 2.0 | 3.0 | 0.00 | 0.00 | 0.00 | 48 | 1024.7 |
| 20260906021501 | 66 | 235 | 2.0 | 4.0 | 0.00 | 0.00 | 0.00 | 48 | 1024.8 |
| 20260906020501 | 66 | 231 | 3.0 | 4.0 | 0.00 | 0.00 | 0.00 | 48 | 1024.7 |
| 20260906020004 | 66 | 218 | 3.0 | 5.0 | 0.00 | 0.00 | 0.00 | 48 | 1024.7 |
| 20260906015501 | 66 | 248 | 4.0 | 5.0 | 0.00 | 0.00 | 0.00 | 48 | 1024.7 |
| 20260906015002 | 66 | 240 | 4.0 | 5.0 | 0.00 | 0.00 | 0.00 | 48 | 1024.9 |
| 20260906014501 | 67 | 264 | 2.0 | 5.0 | 0.00 | 0.00 | 0.00 | 47 | 1024.9 |
| 20260906014002 | 67 | 264 | 2.0 | 3.0 | 0.00 | 0.00 | 0.00 | 47 | 1025.0 |
| 20260906013502 | 68 | 266 | 1.0 | 3.0 | 0.00 | 0.00 | 0.00 | 47 | 1025.0 |
| 20260906013001 | 68 | 240 | 2.0 | 3.0 | 0.00 | 0.00 | 0.00 | 47 | 1025.0 |
| 20260906012502 | 68 | 227 | 2.0 | 4.0 | 0.00 | 0.00 | 0.00 | 47 | 1025.0 |
| 20260906012002 | 68 | 225 | 3.0 | 4.0 | 0.00 | 0.00 | 0.00 | 46 | 1025.1 |
| 20260906011502 | 69 | 233 | 3.0 | 7.0 | 0.00 | 0.00 | 0.00 | 45 | 1025.0 |
| 20260906010502 | 69 | 201 | 3.0 | 5.0 | 0.00 | 0.00 | 0.00 | 46 | 1025.1 |
| 20260906010005 | 69 | 182 | 5.0 | 9.0 | 0.00 | 0.00 | 0.00 | 46 | 1025.2 |
| 20260906005502 | 70 | 180 | 7.0 | 12.0 | 0.00 | 0.00 | 0.00 | 45 | 1025.0 |
| 20260906005002 | 71 | 166 | 8.0 | 12.0 | 0.00 | 0.00 | 0.00 | 44 | 1025.2 |
| 20260906004501 | 71 | 163 | 7.0 | 12.0 | 0.00 | 0.00 | 0.00 | 44 | 1025.2 |
| 20260906004002 | 71 | 162 | 6.0 | 9.0 | 0.00 | 0.00 | 0.00 | 43 | 1025.1 |
| 20260906003502 | 72 | 184 | 7.0 | 9.0 | 0.00 | 0.00 | 0.00 | 42 | 1024.9 |
| 20260906003002 | 72 | 165 | 8.0 | 13.0 | 0.00 | 0.00 | 0.00 | 41 | 1025.0 |
| 20260906002502 | 73 | 174 | 8.0 | 13.0 | 0.00 | 0.00 | 0.00 | 40 | 1024.9 |
| 20260906002001 | 73 | 157 | 7.0 | 11.0 | 0.00 | 0.00 | 0.00 | 40 | 1024.9 |
| 20260906001501 | 73 | 171 | 7.0 | 11.0 | 0.00 | 0.00 | 0.00 | 42 | 1024.9 |
| 20260906000501 | 74 | 159 | 6.0 | 10.0 | 0.00 | 0.00 | 0.00 | 40 | 1024.8 |
| 20260906000004 | 74 | 164 | 6.0 | 9.0 | 0.00 | 0.00 | 0.00 | 39 | 1024.7 |
| 20260905235501 | 74 | 147 | 6.0 | 9.0 | 0.00 | 0.00 | 0.00 | 38 | 1024.7 |
| 20260905235003 | 74 | 139 | 8.0 | 11.0 | 0.00 | 0.00 | 0.00 | 38 | 1024.7 |
| 20260905234502 | 75 | 142 | 8.0 | 11.0 | 0.00 | 0.00 | 0.00 | 36 | 1024.7 |
| 20260905234001 | 75 | 120 | 8.0 | 11.0 | 0.00 | 0.00 | 0.00 | 37 | 1024.8 |
| 20260905233502 | 75 | 108 | 7.0 | 11.0 | 0.00 | 0.00 | 0.00 | 36 | 1024.7 |
| 20260905233001 | 75 | 115 | 7.0 | 11.0 | 0.00 | 0.00 | 0.00 | 36 | 1024.7 |
| 20260905232501 | 75 | 117 | 8.0 | 11.0 | 0.00 | 0.00 | 0.00 | 35 | 1024.6 |
| 20260905232002 | 75 | 103 | 9.0 | 13.0 | 0.00 | 0.00 | 0.00 | 35 | 1024.5 |
| 20260905231501 | 75 | 134 | 10.0 | 13.0 | 0.00 | 0.00 | 0.00 | 35 | 1024.5 |
| 20260905231001 | 76 | 123 | 11.0 | 16.0 | 0.00 | 0.00 | 0.00 | 35 | 1024.5 |
| 20260905230501 | 76 | 122 | 12.0 | 16.0 | 0.00 | 0.00 | 0.00 | 34 | 1024.4 |
| 20260905225001 | 77 | 115 | 9.0 | 14.0 | 0.00 | 0.00 | 0.00 | 33 | 1024.2 |
| 20260905224500 | 77 | 98 | 10.0 | 16.0 | 0.00 | 0.00 | 0.00 | 34 | 1024.1 |
| 20260905224000 | 77 | 96 | 10.0 | 16.0 | 0.00 | 0.00 | 0.00 | 33 | 1024.0 |
| 20260905223500 | 77 | 113 | 11.0 | 16.0 | 0.00 | 0.00 | 0.00 | 33 | 1024.1 |
| 20260905223001 | 76 | 120 | 10.0 | 16.0 | 0.00 | 0.00 | 0.00 | 35 | 1024.2 |
| 20260905222001 | 76 | 91 | 8.0 | 13.0 | 0.00 | 0.00 | 0.00 | 34 | 1024.3 |
| 20260905221501 | 76 | 68 | 10.0 | 15.0 | 0.00 | 0.00 | 0.00 | 34 | 1024.2 |
| 20260905221000 | 77 | 84 | 11.0 | 17.0 | 0.00 | 0.00 | 0.00 | 35 | 1024.2 |
| 20260905220004 | 77 | 117 | 9.0 | 17.0 | 0.00 | 0.00 | 0.00 | 33 | 1024.2 |
| 20260905215501 | 77 | 108 | 10.0 | 16.0 | 0.00 | 0.00 | 0.00 | 33 | 1024.3 |
| 20260905215001 | 77 | 139 | 13.0 | 21.0 | 0.00 | 0.00 | 0.00 | 33 | 1024.3 |